Location: Navajo
(48.7922°N, 105.0603°W)
Time: 22:38:56
(UTC+00:00)

QB50P2 - Pass Details

Date: 30 June 2022
Orbit: 590 x 605 km, 97.9° (Epoch: 15 August)

Event Time Altitude Azimuth Distance (km) Brightness Sun altitude
Rises 09:32:53 0° 3° (N) 2,860 ? -10.7°
Reaches altitude 10° 09:35:21 10° 350° (N) 1,955 ? -10.5°
Maximum altitude 09:38:48 25° 296° (WNW) 1,238 ? -10.2°
Enters shadow 09:42:07 11° 242° (WSW) 1,908 ? -9.9°
